Погода в Ермиши

Россия / Рязанская область     54°46′08″N   42°16′05″E
темп.,
°C
ветер,
м/с
пор.,
м/с
влажн.,
%
обл.,
%
осадки,
мм/ч
давл.,
гПа
погр.,
м
22 апреля, чт
чт2200:00+5ююз41090100 0.0 1015505
03:00+5ююв3695100 0.0 1016175
06:00+5ююз3794100 0.0 1017347
09:00+7ююз4684100 0.0 1018655
12:00+9юз567085 0.1 10191054
15:00+11юз5758100 0.1 10191435
18:00+11ююз476543 0.0 1020314
21:00+9ююв4869100 0.0 1020158
23 апреля, пт
пт2300:00+8ююв397684 0.0 1020176
03:00+8ююв4107899 0.0 1020223
06:00+8ю4117699 0.0 1020262
09:00+12ю6106195 0.0 1021524
12:00+15ю584772 0.0 10191948
15:00+16ю574571 0.1 10181889
18:00+14ююв485837 0.1 1017314
21:00+9юв41174100 0.1 1017197
24 апреля, сб
сб2400:00+8ююв378169 0.0 1015136
03:00+7юв49908 0.0 1012177
06:00+7юв5129079 0.0 1011361
09:00+10ююв61076100 0.1 1009824
12:00+10юз7877100 0.9 1008837
15:00+4зсз51096100 5.1 1009577
18:00+6зсз367840 0.4 1009824
21:00+4юз118877 0.4 101010
25 апреля, вс
вс2500:00+3зюз239413 0.3 100942
03:00+2з33895 0.3 101054
06:00+1з37895 0.0 1011192
09:00+6з575810 0.0 1012896
12:00+8зюз685279 0.1 10121863
15:00+9зюз6943100 0.1 10122400
18:00+7зюз59550 0.7 10131227
21:00+3юз411705 0.8 1015279
26 апреля, пн
пн2600:00+1юз38795 0.0 1016157
03:000ююз358221 0.0 101684
06:00+1ююз38875 0.0 1016278
09:00+6юз46636 0.0 1016969
12:00+8юз575198 0.3 10151710
15:00+9юз4550100 0.8 10141756
18:00+8ю356299 0.0 1012491
21:00+4ююв5792100 1.4 1011605